Location: Enborne
(51.3833°N, 1.3667°W)
Time: 15:27:12
(UTC+00:00)

NOSS 2-2 (C) - Pass Details

Date: 23 January 2021
Orbit: 463 x 1745 km, 63.3° (Epoch: 03 March)

Event Time Altitude Azimuth Distance (km) Brightness Sun altitude
Rises 19:16:50 0° 314° (NW) 2,883 7.6 -24.1°
Reaches altitude 10° 19:18:57 10° 323° (NW) 2,107 6.7 -24.4°
Enters shadow 19:22:53 38° 18° (NNE) 1,200 4.8 -25.1°
